EDP DISTRIBUIÇÃO MEIA MARATONA DE ÉVORA - 10K

Tabela de Prémios | Solicitar Prémio


Dorsal Lugar Nome Sexo Categoria Clube Tempo Oficial Tempo Chip Fotografia Certificado
4238 117 Maria Rodrigues Geral F-V40 Bombeiros Voluntários Montemor-O-Novo 00:50:44.407 00:50:36.624 Ver Descarregar
4430 124 Maria Correia Geral F-V40 Azarujabtt 00:51:10.153 00:51:02.783 Ver Descarregar
4048 128 Carla Carvalho Geral F-V40 Moreteam 00:51:19.653 00:51:15.843 Ver Descarregar
4573 142 Urania Chuva Geral F-V40 Bio Team Run 00:51:58.897 00:51:49.107 Ver Descarregar
4534 177 Vanda Bragança Geral F-V40 Individual 00:53:27.747 00:52:43.470 Ver Descarregar
4739 189 Silvia Campos Geral F-V40 Casa Do Benfica De Reguengos De Monsaraz 00:54:07.750 00:53:58.937 Ver Descarregar
4974 191 Joana Ribeiro Geral F-V40 Everybody 00:54:11.757 00:54:00.454 Ver Descarregar
4902 192 Maria Rebola Geral F-V40 Grupo Desportivo Diana 00:54:16.130 00:54:04.680 Ver Descarregar
4000 198 Helena Lopes Geral F-V40 Tribo Nr 00:54:25.137 00:53:50.084 Ver Descarregar
4731 275 Dália Santos Geral F-V40 Casa Do Benfica De Reguengos De Monsaraz 00:57:15.257 00:57:05.724 Ver Descarregar
4230 305 Elisabete Picanço Geral F-V40 Bombeiros Voluntários Montemor-O-Novo 00:58:10.340 00:56:18.517 Ver Descarregar
4983 342 Cristina Baião Geral F-V40 Individual 00:59:14.830 00:57:00.033 Ver Descarregar
4054 361 Ana Amorim Geral F-V40 Individual 00:59:54.003 00:58:47.476 Ver Descarregar
4194 372 Paula Café Geral F-V40 Juninhos 01:00:13.853 00:58:13.073 Ver Descarregar
4079 394 Sandra Aguiar Geral F-V40 Salgueiros Running 01:01:08.523 00:59:50.996 Ver Descarregar
4774 406 Susan Pereira Geral F-V40 Individual 01:01:28.010 01:00:01.733 Ver Descarregar
4372 411 Paula Leitão Geral F-V40 Individual 01:01:32.310 00:59:24.023 Ver Descarregar
4672 425 Anabela Estácio Geral F-V40 Udcb Terras De Barro 01:01:52.767 01:01:34.494 Ver Descarregar
4878 443 Isalinda Calva Geral F-V40 F.V.Figueira Futebol Club 01:02:16.007 01:01:40.727 Ver Descarregar
4758 451 Joaquina Rebocho Geral F-V40 Atkrsd 01:02:24.270 01:01:39.993 Ver Descarregar
4606 469 Maria Verdasca Geral F-V40 Évora Night Runners 01:02:55.327 01:00:37.797 Ver Descarregar
4571 486 Dora Dourado Geral F-V40 Bio Team Run 01:03:21.023 01:03:10.483 Ver Descarregar
4428 495 Dina Campino Geral F-V40 Individual 01:03:29.770 01:01:09.467 Ver Descarregar
4593 497 Anabela Pereira Geral F-V40 G.D.R. São Francisco Da Serra 01:03:42.537 01:01:54.760 Ver Descarregar
4421 500 Rosa Algarvio Geral F-V40 Sca/Run Alcáçovas 01:03:47.780 01:03:01.747 Ver Descarregar
4164 519 Sara Fernandes Geral F-V40 Pace.Makers 01:04:15.040 01:02:31.257 Ver Descarregar
4199 520 Rita Marques Geral F-V40 Clube Ferroviário De Portugal 01:04:16.523 01:02:09.243 Ver Descarregar
4643 541 Catarina Pontes Geral F-V40 Individual 01:04:51.280 01:03:18.993 Ver Descarregar
4133 543 Alexandra Moedas Geral F-V40 Individual 01:04:55.277 01:04:33.730 Ver Descarregar
4649 548 Rute Oliveira Geral F-V40 Correr Em Évora 01:05:06.277 01:03:35.724 Ver Descarregar
4999 549 Maria Tavares Geral F-V40 Individual 01:05:12.017 01:02:44.487 Ver Descarregar
4847 571 Ana Borges Geral F-V40 Sammy45 01:06:09.530 01:03:29.750 Ver Descarregar
4694 593 Vera Murta Geral F-V40 Individual 01:07:05.280 01:05:07.240 Ver Descarregar
4702 594 Elga Magalhães Geral F-V40 Individual 01:07:06.280 01:05:08.250 Ver Descarregar
4272 609 Laura Barroso Geral F-V40 Individual 01:07:51.283 01:06:01.726 Ver Descarregar
5038 625 Adélia Madeira Geral F-V40 Individual 01:08:29.497 01:08:02.224 Ver Descarregar
4682 627 Graça Malarranha Geral F-V40 Évora Night Runners 01:08:35.497 01:06:06.967 Ver Descarregar
4844 641 Elsa Reis Geral F-V40 Individual 01:09:26.237 01:09:17.677 Ver Descarregar
4807 668 Carla Ramos Geral F-V40 Évora Night Runners 01:11:13.470 01:08:52.177 Ver Descarregar
4563 677 Maria Cabral Geral F-V40 Competitivas 01:11:20.537 01:08:35.490 Ver Descarregar
4493 684 Susana Almeida Geral F-V40 Juventude S C 01:11:31.967 01:09:58.190 Ver Descarregar
4132 698 Ana Gabriela Geral F-V40 Individual 01:12:06.473 01:11:03.186 Ver Descarregar
4887 709 Vera Luzia Geral F-V40 Individual 01:12:36.957 01:10:04.424 Ver Descarregar
4072 711 Fátima Pinho Geral F-V40 Individual 01:12:48.033 01:10:27.730 Ver Descarregar
4195 712 Elisandra Oliveira Geral F-V40 Individual 01:12:49.297 01:11:25.740 Ver Descarregar
4022 716 Andreia Cambez Geral F-V40 Peniche@Correr 01:13:04.453 01:11:10.656 Ver Descarregar
4402 736 Fátima Piteira Geral F-V40 Divorunners 01:14:54.297 01:13:03.517 Ver Descarregar
4461 737 Cristina Jan Geral F-V40 Ppp 01:14:54.437 01:13:02.894 Ver Descarregar
4408 738 Sónia Charrua Geral F-V40 Divorunners 01:14:55.163 01:13:04.120 Ver Descarregar
4390 742 Susana Mira Geral F-V40 Margaridas 01:15:08.687 01:13:57.900 Ver Descarregar
4211 748 Maria Carvalho Geral F-V40 Individual 01:15:43.797 01:14:56.520 Ver Descarregar
4525 750 Teresa Batista Geral F-V40 Sca/Run Alcáçovas 01:15:44.800 01:14:57.273 Ver Descarregar
4561 756 Telma Sebastião Geral F-V40 Vitória Futebol Clube Ermidense 01:16:02.427 01:14:18.120 Ver Descarregar
4476 758 Ana Silva Geral F-V40 Individual 01:16:05.427 01:14:52.374 Ver Descarregar
5020 762 Sofia Guerra Geral F-V40 Individual 01:16:55.300 01:14:50.020 Ver Descarregar
4114 767 Célia Almeida Geral F-V40 Individual 01:17:12.167 01:15:55.130 Ver Descarregar
4547 769 Ana Querido Geral F-V40 Juventude S C 01:17:28.420 01:14:53.890 Ver Descarregar
4785 775 Olga Silva Geral F-V40 Individual 01:17:38.303 01:16:08.776 Ver Descarregar
4657 784 Anabela Mendes Geral F-V40 Individual 01:18:12.803 01:15:25.273 Ver Descarregar
4850 792 Sandrine Portefaix Geral F-V40 Sammy45 01:18:47.557 01:16:08.267 Ver Descarregar
4097 797 Cristina Caramelo Geral F-V40 Individual 01:19:22.807 01:09:41.760 Ver Descarregar
4572 805 Sofia Mendes Geral F-V40 Bio Team Run 01:21:11.567 01:21:01.504 Ver Descarregar
4106 824 Paula Camacho Geral F-V40 Individual 01:24:40.097 01:23:25.810 Ver Descarregar
4292 827 Ivone Pica Geral F-V40 Lidl Team 01:25:02.570 01:22:27.783 Ver Descarregar
4564 835 Rosario Lã-Branca Geral F-V40 Competitivas 01:26:15.570 01:23:27.533 Ver Descarregar
4567 855 Cláudia Serpa Geral F-V40 Jcjc 01:32:04.037 01:29:30.714 Ver Descarregar
4996 875 Cristina Cunha Geral F-V40 Felizes:) 02:03:12.170 01:53:12.873 Ver Descarregar